2018-014K

Last updated on Fri Nov 16 2018 00:08:36 GMT+0000 (Coordinated Universal Time)

1 43189U 18014K 18319.33576183 .00000058 00000-0 10236-4 0 9996 2 43189 97.7158 225.7766 0011355 12.9256 347.2254 14.96531764 41478
UTC large
Height (km)
Speed (km/s)
/
Latitude / Longitude
Inclination (degrees)
Orbital Period (minutes)
Azimuth
Elevation
Range (km)
Doppler Factor

Next 0 passes for location: London (51.5072 / 0.1276)

Sorry there are no passes over London.